Hourly Data Report for September 06, 2017

All times are specified in Local Standard Time (LST). Add 1 hour to adjust for Daylight Saving Time where and when it is observed.

SANDY LAKE A
ONTARIO

53°03'51.000" N
93°20'40.000" W
289.90 m
6017401
71587
ZSJ

Download Data

Hourly Data (September 2017)
Hourly Data Report for September 6, 2017
Temp Definition
°C
Dew Point Temp Definition
°C
Rel Hum Definition
%
Wind Dir Definition
10's deg

Wind Spd Definition
km/h
Visibility Definition
km
Stn Press Definition
kPa
Hmdx Definition


Wind Chill Definition


Weather Definition


TIME
00:00 Legend Double Dagger 2.0 2.0 100 LegendMM LegendMM 8.1 98.54     Fog
01:00 Legend Double Dagger 1.7 1.7 100 LegendMM LegendMM 1.2 98.53     Fog
02:00 Legend Double Dagger 3.8 3.8 100 LegendMM LegendMM 16.1 98.50     LegendNANA
03:00 Legend Double Dagger 3.9 3.8 99 LegendMM LegendMM 16.1 98.51     LegendNANA
04:00 Legend Double Dagger 4.2 3.9 98 LegendMM LegendMM 16.1 98.52     LegendNANA
05:00 Legend Double Dagger 4.2 4.1 99 LegendMM LegendMM 16.1 98.52     LegendNANA
06:00 Legend Double Dagger 4.5 4.5 100 LegendMM LegendMM 16.1 98.53     LegendNANA
07:00 Legend Double Dagger 5.7 5.4 98 LegendMM LegendMM 16.1 98.53     LegendNANA
08:00 Legend Double Dagger 6.7 5.9 95 LegendMM LegendMM 16.1 98.52     LegendNANA
09:00 Legend Double Dagger 8.5 6.2 86 LegendMM LegendMM 16.1 98.49     LegendNANA
10:00 Legend Double Dagger 10.5 6.3 75 LegendMM LegendMM 16.1 98.45     LegendNANA
11:00 Legend Double Dagger 11.9 6.1 68 LegendMM LegendMM 16.1 98.43     LegendNANA
12:00 Legend Double Dagger 11.8 5.2 64 LegendMM LegendMM 16.1 98.40     LegendNANA
13:00 Legend Double Dagger 12.1 5.4 63 LegendMM LegendMM 16.1 98.36     LegendNANA
14:00 Legend Double Dagger 12.5 5.5 62 LegendMM LegendMM 16.1 98.32     LegendNANA
15:00 Legend Double Dagger 12.9 5.4 60 LegendMM LegendMM 16.1 98.28     LegendNANA
16:00 Legend Double Dagger 12.7 5.8 62 LegendMM LegendMM 16.1 98.26     LegendNANA
17:00 Legend Double Dagger 12.0 6.1 67 LegendMM LegendMM 16.1 98.24     Rain
18:00 Legend Double Dagger 10.8 7.4 80 LegendMM LegendMM 16.1 98.19     Rain
19:00 Legend Double Dagger 10.1 7.7 85 LegendMM LegendMM 16.1 98.17     Rain
20:00 Legend Double Dagger 9.7 7.7 87 LegendMM LegendMM 16.1 98.15     Rain
21:00 Legend Double Dagger 9.5 7.8 89 LegendMM LegendMM 16.1 98.15     Rain
22:00 Legend Double Dagger 9.1 7.6 91 LegendMM LegendMM 16.1 98.15     Rain
23:00 Legend Double Dagger 8.8 7.7 93 LegendMM LegendMM 12.9 98.10     Rain

Notes on Data Quality.

Legend

  • E = Estimated
  • M = Missing
  • NA = Not Available
  • ‡ = Partner data that is not subject to review by the National Climate Archives
Date modified: